Regional Weather Roundup
Issued by NWS New Orleans/Baton Rouge, LA

Home | Current Version | Previous Version | Graphics & Text | Print | Product List | Glossary On
Versions: 1 2 3 4 5 6 7 8 9 10 11 12 13 14 15 16 17 18 19 20 21 22 23 24 25 26 27 28 29 30 31 32 33 34 35 36 37 38 39 40 41 42 43 44 45 46 47 48 49 50
042
ASUS44 KLIX 191505
RWRLIX
NEW ORLEANS REGIONAL WEATHER ROUNDUP
NATIONAL WEATHER SERVICE NEW ORLEANS LA
1000 AM CDT TUE AUG 19 2014

NOTE: "FAIR" INDICATES FEW OR NO CLOUDS BELOW 12,000 FEET WITH NO
      SIGNIFICANT WEATHER AND/OR OBSTRUCTIONS TO VISIBILITY.
      SKY/WX - SKY CONDITION AND SIGNIFICANT WEATHER.
      TMP - AIR TEMPERATURE.     DP    - DEWPOINT TEMPERATURE.
      RH  - RELATIVE HUMIDITY.   PRES  - PRESSURE.
      HI  - HEAT INDEX.          WCI   - WIND CHILL INDEX.

*  THESE STATIONS ARE NOT NWS OR FAA STATIONS AND ARE NOT UNDER
   NWS QUALITY CONTROL.

LAZ038-040-048-061>063-065>067-069-191600-
SOUTHEAST LOUISIANA

CITY           SKY/WX    TMP DP  RH WIND       PRES   REMARKS
N.O. AUDUBON     N/A     91  77  63 MISG        N/A  HX 103
N.O. INTL ARPT MOSUNNY   87  75  67 W9        30.02R HX  96
N.O. LAKEFRONT SUNNY     86  77  74 NW7       30.03R HX  97
N.O. DOWNTOWN* PTSUNNY   88  73  62 SW5       30.03R HX  96
SLIDELL        PTSUNNY   87  76  69 VRB7      30.02R HX  97
BATON ROUGE    MOSUNNY   87  76  69 W9        30.01S HX  97
BOOTHVILLE     SUNNY     86  75  69 SW10      30.03R HX  95
BELLE CHASSE   MOSUNNY   88  73  61 SW7       30.02R HX  95
BOGALUSA*      CLOUDY    86  76  72 W6        30.04R HX  95
GALLIANO*      NOT AVBL
NEW ROADS*       N/A     85  76  74 SW7       30.01S HX  95
GONZALES*        N/A     86  79  79 W5        30.01R HX  99
HAMMOND*       MOSUNNY   88  75  66 W5        30.03S HX  97
HOUMA*         MOSUNNY   88  73  62 SW7       30.02R HX  96
PORT FOURCHON* MOSUNNY   88  75  66 SW8       30.04R HX  97

$$

MSZ070-080>082-191600-
SOUTHERN MISSISSIPPI

CITY           SKY/WX    TMP DP  RH WIND       PRES   REMARKS
MCCOMB         PTSUNNY   84  74  71 W8        30.03S
GULFPORT       MOSUNNY   87  76  69 W10       30.01S HX  97
BILOXI         MOSUNNY   89  77  68 VRB1      30.02S HX 101
PASCAGOULA     MOSUNNY   87  75  67 W7        30.02S HX  96
STENNIS ARPT*  MOSUNNY  N/A N/A N/A W6        30.02S

$$

COASTAL OBSERVATIONS
LAKE AND NEARSHORE STATIONS

STATION/POSITION TIME  TEMP    WIND        PRES    WAVE
                       AIR SEA DIR/SP/G            HT/PER
                 (UTC) (F)     (DEG/KT/KT) (MB)    (FT/S)
PASCAGOULA       1500   86     250/ 10/ 13 1016.1
WAVELAND YACHT   1500   85     290/  6/  9 1016.0
GRAND ISLE       1500   86 85  230/  7/ 11 1017.4
SOUTHWEST PASS   1500   86 87  210/  7/ 10 1017.2
NEW CANAL        1500   86 83  260/  6/  8 1017.0
SHELL BEACH      1500   85 81  260/  9/ 12 1016.6

OFFSHORE STATIONS

STATION/POSITION TIME  TEMP    WIND        PRES    WAVE
                       AIR SEA DIR/SP/G            HT/PER
                 (UTC) (F)     (DEG/KT/KT) (MB)    (FT/S)
64 S DAUPHIN ISL 1407   86 87  240/ 10/ 12 1017.5

$$




USA.gov is the U.S. government's official web portal to all federal, state and local government web resources and services.